Météo par heure à Almassora

Ce jour, 15 Mai, Samedi

Heure Température Précipitation Vent Pression Humidité
00:00 +17°C° 0 mm 2 m/s 753 mmHg 66%
01:00 +17°C° 0 mm 2 m/s 753 mmHg 64%
02:00 +17°C° 0 mm 2 m/s 753 mmHg 61%
03:00 +17°C° 0 mm 2 m/s 752 mmHg 58%
04:00 +18°C° 0 mm 2 m/s 752 mmHg 55%
05:00 +18°C° 0 mm 2 m/s 752 mmHg 52%
06:00 +19°C° 0 mm 3 m/s 752 mmHg 48%
07:00 +21°C° 0 mm 3 m/s 752 mmHg 43%
08:00 +24°C° 0 mm 3 m/s 752 mmHg 37%
09:00 +26°C° 0 mm 3 m/s 752 mmHg 32%
10:00 +27°C° 0 mm 4 m/s 752 mmHg 31%
11:00 +28°C° 0 mm 4 m/s 751 mmHg 30%
12:00 +29°C° 0 mm 4 m/s 751 mmHg 29%
13:00 +29°C° 0 mm 4 m/s 750 mmHg 30%
14:00 +29°C° 0 mm 4 m/s 750 mmHg 31%
15:00 +29°C° 0 mm 4 m/s 750 mmHg 33%
16:00 +29°C° 0 mm 3 m/s 749 mmHg 33%
17:00 +29°C° 0 mm 3 m/s 749 mmHg 34%
18:00 +29°C° 0 mm 2 m/s 749 mmHg 35%
19:00 +28°C° 0 mm 2 m/s 750 mmHg 37%
20:00 +27°C° 0 mm 2 m/s 750 mmHg 39%
21:00 +26°C° 0 mm 2 m/s 751 mmHg 41%
22:00 +25°C° 0 mm 2 m/s 750 mmHg 43%
23:00 +24°C° 0 mm 2 m/s 750 mmHg 45%

Demain, 16 Mai, Dimanche

Heure Température Précipitation Vent Pression Humidité
00:00 +24°C° 0 mm 2 m/s 750 mmHg 47%
01:00 +23°C° 0 mm 2 m/s 750 mmHg 49%
02:00 +23°C° 0 mm 2 m/s 750 mmHg 50%
03:00 +23°C° 0 mm 1 m/s 749 mmHg 52%
04:00 +23°C° 0 mm 2 m/s 750 mmHg 52%
05:00 +23°C° 0 mm 2 m/s 750 mmHg 51%
06:00 +24°C° 0 mm 2 m/s 750 mmHg 51%
07:00 +26°C° 0 mm 2 m/s 750 mmHg 46%
08:00 +28°C° 0 mm 2 m/s 750 mmHg 40%
09:00 +29°C° 0 mm 2 m/s 750 mmHg 35%
10:00 +30°C° 0 mm 3 m/s 750 mmHg 34%
11:00 +31°C° 0 mm 3 m/s 750 mmHg 32%
12:00 +33°C° 0 mm 3 m/s 749 mmHg 31%
13:00 +33°C° 0 mm 4 m/s 749 mmHg 31%
14:00 +33°C° 0 mm 4 m/s 749 mmHg 30%
15:00 +33°C° 0 mm 4 m/s 748 mmHg 30%
16:00 +32°C° 0 mm 4 m/s 749 mmHg 34%
17:00 +30°C° 0 mm 4 m/s 749 mmHg 37%
18:00 +29°C° 0 mm 4 m/s 749 mmHg 41%
19:00 +28°C° 0 mm 4 m/s 750 mmHg 43%
20:00 +27°C° 0 mm 3 m/s 750 mmHg 45%
21:00 +26°C° 0 mm 3 m/s 751 mmHg 48%
22:00 +23°C° 0 mm 4 m/s 751 mmHg 57%
23:00 +22°C° 0 mm 5 m/s 752 mmHg 65%

Après-demain, 17 Mai, Lundi

Heure Température Précipitation Vent Pression Humidité
00:00 +20°C° 0 mm 6 m/s 752 mmHg 74%
01:00 +19°C° 0 mm 6 m/s 752 mmHg 78%
02:00 +17°C° 0 mm 6 m/s 752 mmHg 82%
03:00 +17°C° 0 mm 5 m/s 753 mmHg 85%
04:00 +17°C° 0 mm 5 m/s 753 mmHg 85%
05:00 +18°C° 0 mm 4 m/s 754 mmHg 84%
06:00 +18°C° 0 mm 4 m/s 754 mmHg 84%
07:00 +19°C° 0 mm 4 m/s 754 mmHg 79%
08:00 +20°C° 0 mm 4 m/s 754 mmHg 74%
09:00 +21°C° 0 mm 3 m/s 754 mmHg 69%
10:00 +22°C° 0 mm 4 m/s 754 mmHg 65%
11:00 +22°C° 0 mm 4 m/s 754 mmHg 62%
12:00 +23°C° 0 mm 4 m/s 755 mmHg 59%
13:00 +23°C° 0 mm 4 m/s 754 mmHg 60%
14:00 +23°C° 0 mm 4 m/s 754 mmHg 61%
15:00 +22°C° 0 mm 4 m/s 754 mmHg 62%
16:00 +22°C° 0 mm 3 m/s 754 mmHg 64%
17:00 +21°C° 0 mm 3 m/s 754 mmHg 66%
18:00 +21°C° 0 mm 2 m/s 754 mmHg 68%
19:00 +20°C° 0 mm 2 m/s 755 mmHg 70%
20:00 +20°C° 0 mm 2 m/s 755 mmHg 73%
21:00 +20°C° 0 mm 1 m/s 756 mmHg 76%
22:00 +20°C° 0 mm 1 m/s 756 mmHg 77%
23:00 +20°C° 0 mm 1 m/s 756 mmHg 77%

18 Mai, Mardi

Heure Température Précipitation Vent Pression Humidité
00:00 +19°C° 0 mm 1 m/s 756 mmHg 78%
01:00 +19°C° 0 mm 1 m/s 756 mmHg 80%
02:00 +19°C° 0 mm 1 m/s 756 mmHg 83%
03:00 +18°C° 0 mm 1 m/s 756 mmHg 85%
04:00 +18°C° 0 mm 1 m/s 756 mmHg 84%
05:00 +19°C° 0 mm 1 m/s 757 mmHg 82%
06:00 +19°C° 0 mm 1 m/s 757 mmHg 81%
07:00 +19°C° 0 mm 1 m/s 757 mmHg 79%
08:00 +20°C° 0 mm 1 m/s 758 mmHg 77%
09:00 +20°C° 0 mm 1 m/s 758 mmHg 75%
10:00 +19°C° 0 mm 2 m/s 758 mmHg 74%
11:00 +20°C° 0 mm 2 m/s 758 mmHg 74%
12:00 +20°C° 0 mm 2 m/s 758 mmHg 73%
13:00 +20°C° 0 mm 2 m/s 758 mmHg 70%
14:00 +21°C° 0 mm 2 m/s 758 mmHg 68%
15:00 +21°C° 0 mm 3 m/s 757 mmHg 65%
16:00 +21°C° 0 mm 3 m/s 757 mmHg 67%
17:00 +21°C° 0 mm 3 m/s 758 mmHg 69%
18:00 +20°C° 0 mm 3 m/s 758 mmHg 71%
19:00 +19°C° 0 mm 2 m/s 758 mmHg 74%
20:00 +19°C° 0 mm 2 m/s 759 mmHg 77%
21:00 +18°C° 0 mm 2 m/s 759 mmHg 81%
22:00 +19°C° 0 mm 1 m/s 759 mmHg 79%
23:00 +18°C° 0 mm 1 m/s 760 mmHg 77%

19 Mai, Mercredi

Heure Température Précipitation Vent Pression Humidité
00:00 +18°C° 0 mm 1 m/s 760 mmHg 75%
01:00 +18°C° 0 mm 1 m/s 760 mmHg 72%
02:00 +16°C° 0 mm 1 m/s 760 mmHg 70%
03:00 +16°C° 0 mm 1 m/s 760 mmHg 67%
04:00 +18°C° 0 mm 1 m/s 760 mmHg 62%
05:00 +18°C° 0 mm 1 m/s 760 mmHg 56%
06:00 +17°C° 0 mm 2 m/s 760 mmHg 51%
07:00 +20°C° 0 mm 1 m/s 761 mmHg 48%
08:00 +21°C° 0 mm 1 m/s 761 mmHg 44%
09:00 +23°C° 0 mm 1 m/s 761 mmHg 41%
10:00 +24°C° 0 mm 2 m/s 760 mmHg 41%
11:00 +24°C° 0 mm 3 m/s 760 mmHg 42%
12:00 +25°C° 0 mm 4 m/s 760 mmHg 42%
13:00 +25°C° 0 mm 4 m/s 760 mmHg 42%
14:00 +25°C° 0 mm 4 m/s 760 mmHg 41%
15:00 +25°C° 0 mm 4 m/s 759 mmHg 41%
16:00 +23°C° 0 mm 4 m/s 759 mmHg 43%
17:00 +22°C° 0 mm 3 m/s 759 mmHg 45%
18:00 +22°C° 0 mm 3 m/s 759 mmHg 47%
19:00 +21°C° 0 mm 3 m/s 760 mmHg 52%
20:00 +20°C° 0 mm 3 m/s 760 mmHg 57%
21:00 +19°C° 0 mm 3 m/s 761 mmHg 62%
22:00 +18°C° 0 mm 2 m/s 761 mmHg 65%
23:00 +18°C° 0 mm 2 m/s 761 mmHg 67%

20 Mai, Jeudi

Heure Température Précipitation Vent Pression Humidité
00:00 +18°C° 0 mm 2 m/s 761 mmHg 69%
01:00 +17°C° 0 mm 2 m/s 761 mmHg 69%
02:00 +17°C° 0 mm 2 m/s 760 mmHg 69%
03:00 +17°C° 0 mm 2 m/s 760 mmHg 68%
04:00 +17°C° 0 mm 2 m/s 760 mmHg 68%
05:00 +18°C° 0 mm 2 m/s 761 mmHg 68%
06:00 +18°C° 0 mm 2 m/s 761 mmHg 68%
07:00 +19°C° 0 mm 2 m/s 761 mmHg 64%
08:00 +20°C° 0 mm 3 m/s 761 mmHg 61%
09:00 +22°C° 0 mm 3 m/s 761 mmHg 57%
10:00 +22°C° 0 mm 4 m/s 761 mmHg 55%
11:00 +23°C° 0 mm 4 m/s 761 mmHg 52%
12:00 +25°C° 0 mm 4 m/s 761 mmHg 49%
13:00 +25°C° 0 mm 4 m/s 760 mmHg 49%
14:00 +25°C° 0 mm 4 m/s 760 mmHg 49%
15:00 +25°C° 0 mm 4 m/s 759 mmHg 49%
16:00 +23°C° 0 mm 4 m/s 759 mmHg 51%
17:00 +22°C° 0 mm 4 m/s 759 mmHg 54%
18:00 +21°C° 0 mm 3 m/s 759 mmHg 57%
19:00 +20°C° 0 mm 3 m/s 760 mmHg 60%
20:00 +20°C° 0 mm 3 m/s 760 mmHg 63%
21:00 +19°C° 0 mm 2 m/s 760 mmHg 66%
22:00 +18°C° 0 mm 2 m/s 760 mmHg 67%
23:00 +18°C° 0 mm 2 m/s 760 mmHg 67%
Voir plus

Nous avons besoin de votre consentement

Meteoprog et ses fournisseurs de services peuvent stocker et accéder à des données personnelles telles que des cookies, des identifiants d'appareils ou d'autres technologies similaires sur votre appareil et traiter ces données pour personnaliser le contenu et les publicités, ainsi que pour fournir des fonctionnalités de médias sociaux et analyser le trafic.

  • Stocker et/ou accéder à des informations sur votre appareil

    Des cookies, des identifiants d'appareils ou d'autres informations peuvent être stockés ou accessibles sur votre appareil aux fins indiquées ci-dessus.

  • Annonces et contenus personnalisés, mesure des annonces et des contenus, connaissance de l'audience et développement de produits

    Les annonces et le contenu peuvent être personnalisés en fonction d'un profil. D'autres données peuvent être ajoutées pour mieux personnaliser les annonces et le contenu. Les performances des publicités et du contenu peuvent être mesurées. Il est possible d'obtenir des informations sur le public qui a vu les publicités et le contenu. Ces données peuvent être utilisées pour développer ou améliorer l'expérience de l'utilisateur, les systèmes et les logiciels.

En cliquant sur "J'accepte", vous autorisez l'utilisation de cookies, des identifiants d'appareils, des balises web ou d'autres technologies similaires. Vos paramètres peuvent être modifiés dans le navigateur de votre appareil.

Dans certains cas, des intérêts légitimes peuvent être invoqués plutôt qu'un consentement. Vous pouvez en savoir plus à ce sujet dans notre Politique de confidentialité et de cookies.